Regional Weather Roundup
Issued by NWS Charleston, SC

Current Version | Previous Version | Graphics & Text | Print | Product List | Glossary Off
Versions: 1 2 3 4 5 6 7 8 9 10 11 12 13 14 15 16 17 18 19 20 21 22 23 24 25 26 27 28 29 30 31 32 33 34 35 36 37 38 39 40 41 42 43 44 45 46 47 48 49 50
000 ASUS42 KCHS 230525 RWRCHS REGIONAL WEATHER ROUNDUP NATIONAL WEATHER SERVICE CHARLESTON SC 1200 AM EST TUE DEC 23 2014 NOTE: "FAIR" INDICATES FEW OR NO CLOUDS BELOW 12,000 FEET WITH NO SIGNIFICANT WEATHER AND/OR OBSTRUCTIONS TO VISIBILITY. NOT ALL STATIONS ARE QUALITY CONTROLLED BY THE NATIONAL WEATHER SERVICE. USE DATA WITH CAUTION...ESPECIALLY DEWPOINT OBSERVATIONS. SCZ027-030-031-034>040-042>050-230600- ...SOUTHEAST SOUTH CAROLINA... CITY SKY/WX TMP DP RH WIND PRES REMARKS N CHARLESTON FOG 47 46 97 N5 29.99F VSB 1/2 WATERFRONT PRK N/A 48 N/A N/A N9 N/A MOUNT PLEASANT FOG 48 48 100 N3 29.98F VSB 1/4 PINOPOLIS N/A 46 46 100 NE9 29.92F MONCKS CORNER N/A 46 45 93 NE3 29.99F FOG SUMMERVILLE CLOUDY 45 45 100 CALM 30.00F FOG BEAUFORT MCAS CLOUDY 48 47 96 N7 29.98S FOG BEAUFORT ARPT CLOUDY 48 48 100 NE5 29.98R FOG HILTON HEAD IS FOG 52 50 93 N5 29.98S VSB 1/2 WALTERBORO FOG 46 N/A N/A NE6 29.99F VSB 3/4 ALLENDALE CLOUDY 46 46 100 VRB3 29.98S FOG ...SOUTHERN MIDLANDS AND PEE DEE... CITY SKY/WX TMP DP RH WIND PRES REMARKS GEORGETOWN NOT AVBL KINGSTREE NOT AVBL ORANGEBURG CLOUDY 44 42 93 NE8 29.99F FOG BARNWELL DRIZZLE 45 45 100 E6 30.00R AIKEN CLOUDY 43 43 100 E8 30.00F FOG MANNING CLOUDY 45 N/A N/A NE3 29.99F COLUMBIA CLOUDY 43 41 93 E7 30.01F FOG SUMTER CLOUDY 41 41 100 NE10 29.98F FOG FLORENCE FOG 42 41 96 NE5 30.03F VSB 3/4 MYRTLE BEACH CLOUDY 46 43 87 N8 30.00F N MYRTLE BEACH CLOUDY 45 44 97 N7 30.00F FOG $$ GAZ063-065-086>088-099>101-113>116-118-119-134>141-150-230600- ...SOUTHEAST GEORGIA... CITY SKY/WX TMP DP RH WIND PRES REMARKS SAVANNAH ARPT CLOUDY 50 48 93 NE6 29.96F FOG HUNTER AAF CLOUDY 52 52 100 E5 29.94F FORT STEWART CLOUDY 51 50 96 E3 29.94S FOG STATESBORO FOG 47 47 100 NE3 29.96S VSB 1 SYLVANIA CLOUDY 47 47 100 NE6 29.98S FOG CLAXTON FOG 50 50 100 E5 29.95S VSB 1 ...CSRA...CENTRAL AND FAR SOUTHEAST GEORGIA... CITY SKY/WX TMP DP RH WIND PRES REMARKS THOMSON CLOUDY 45 45 100 CALM 30.01F AUGUSTA-BUSH CLOUDY 45 44 97 E5 29.99S FOG AUGUSTA-DANIEL LGT RAIN 45 45 100 E6 29.98F FOG SWAINSBORO DRZL/FOG N/A N/A N/A CALM 29.97F VSB 1 VIDALIA FOG 50 50 100 NE3 29.95R VSB 1/4 EASTMAN FOG 50 50 100 NE5 29.96F VSB 3/4 HAZLEHURST FOG 53 53 100 CALM 29.93R VSB 1/2 ALMA FOG 56 55 97 E5 29.92F VSB 1/2 WAYCROSS CLOUDY 58 58 100 E5 29.93S FOG JESUP FOG 57 55 94 CALM 29.94F VSB 1/4 BAXLEY FOG 54 54 100 E3 29.93F VSB 1/4 BRUNSWICK CLOUDY 57 55 94 NE3 29.95S VSB 3/4 SAINT SIMONS CLOUDY 58 57 97 N5 29.94F FOG $$ SCZ027-028-034-036>038-045-046-048>050-GAZ119-141-230600- ...LAKE AND SUPPLEMENTAL COASTAL OBSERVATIONS... STATION/POSITION TIME TEMP WIND PRES WAVE SWELL AIR SEA DIR/SP/G HT/PER HT/PER/DIR (UTC) (F) (DEG/KT/KT) (MB) (FT/S) (FT/S/D) UPR LAKE MARION NOT AVBL WINYAH BAY 0500 46 20/ 4 1015.0F LAKE MURRAY 0400 41 70/ 4/ 10 1015.2F ACE BASIN NERRS 0500 47 30/ 2 1015.0S FORT PULASKI 0500 52 55 30/ 5/ 8 1015.2R SAPELO ISLAND 0500 56 10/ 6 1014.0S $$ ANZ835-935-AMZ111-154-330-350-352-354-370-450-454-472-230600- ...C-MAN AND BUOY OBSERVATIONS... STATION/POSITION TIME TEMP WIND PRES WAVE SWELL AIR SEA DIR/SP/G HT/PER HT/PER/DIR (UTC) (F) (DEG/KT/KT) (MB) (FT/S) (FT/S/D) BUOY 41004 0500 64 73 30/ 16/ 17 1014.0F 4/ 7 2/ 8 BUOY 41008 0500 60 59 50/ 6/ 6 1013.8F 3/ 5 3/100/ 5 FOLLY BEACH CMAN 0500 49 40/ 11/ 13 1015.5F CAPERS NEARSHORE 0400 49 40/ 10/ 14 N/A FRIPP NEARSHORE NOT AVBL STATION/POSITION TIME TEMP WIND PRES WAVE SWELL AIR SEA DIR/SP/G HT/PER HT/PER/DIR (UTC) (F) (DEG/KT/KT) (MB) (FT/S) (FT/S/D) 5E ST. MARYS GA 0500 61 N/A 3/ 5 FRYING PAN BUOY 0500 58 68 30/ 14/ 16 1015.8F 4/ 7 2/120/ 7 BUOY 41025 0500 55 1015.1F 5/ 8 CAPE LOOKOUT NC 0500 48 330/ 5/ 6 1016.1S BUOY 41002 0408 73 72 220/ 10/ 12 1017.5 4/ 6 3/ 80/ 6 BUOY 41010 0500 76 77 190/ 12/ 14 1015.8F 4/ 9 2/110/ 9 ST AUGUSTINE FL 0500 68 240/ 3/ 4 1014.2R $$

USA.gov is the U.S. government's official web portal to all federal, state and local government web resources and services.